Regional Weather Roundup
Issued by NWS Charleston, SC

Home | Current Version | Previous Version | Text Only | Print | Product List | Glossary On
Versions: 1 2 3 4 5 6 7 8 9 10 11 12 13 14 15 16 17 18 19 20 21 22 23 24 25 26 27 28 29 30 31 32 33 34 35 36 37 38 39 40 41 42 43 44 45 46 47 48 49 50
000
ASUS42 KCHS 030525
RWRCHS

REGIONAL WEATHER ROUNDUP
NATIONAL WEATHER SERVICE CHARLESTON SC
100 AM EDT WED SEP 03 2014

NOTE: "FAIR" INDICATES FEW OR NO CLOUDS BELOW 12,000 FEET WITH NO
SIGNIFICANT WEATHER AND/OR OBSTRUCTIONS TO VISIBILITY.

NOT ALL STATIONS ARE QUALITY CONTROLLED BY THE NATIONAL
WEATHER SERVICE. USE DATA WITH CAUTION...ESPECIALLY
DEWPOINT OBSERVATIONS.

SCZ027-030-031-034>040-042>050-030600-
...SOUTH CAROLINA...

CITY           SKY/WX    TMP DP  RH WIND       PRES   REMARKS
N CHARLESTON   MOCLDY    79  75  87 W3        30.05S
WATERFRONT PRK   N/A     82 N/A N/A CALM        N/A
FORT JOHNSON   NOT AVBL
MOUNT PLEASANT LGT RAIN  79  75  89 CALM      30.05F
JOHNS ISLAND   MOCLDY    81  79  94 CALM      30.05S
PINOPOLIS        N/A     79  73  83 SW3       29.97F
MONCKS CORNER    N/A     75  75 100 CALM      30.06S
SUMMERVILLE    MOCLDY    73  73 100 CALM      30.06F
BEAUFORT MCAS  MOCLDY    76  74  93 MISG      30.05F
BEAUFORT ARPT  FAIR      77  77 100 CALM      30.05S
HILTON HEAD IS MOCLDY    75  75 100 CALM      30.06S
GEORGETOWN     NOT AVBL
WALTERBORO     CLOUDY    73 N/A N/A CALM      30.06F
ORANGEBURG     MOCLDY    74  70  87 CALM      30.06F
BARNWELL       FAIR      73  72  94 CALM      30.06F
AIKEN          FAIR      72  72 100 SE8       30.08F
MANNING        FAIR      77  77 100 CALM      30.05F
KINGSTREE      NOT AVBL
COLUMBIA       MOCLDY    74  70  87 CALM      30.03F
SUMTER         PTCLDY    73  71  93 SW6       30.04F
FLORENCE       PTCLDY    76  69  79 SW8       30.04S
MYRTLE BEACH   MOCLDY    81  73  78 SW6       30.06S
N MYRTLE BEACH MOCLDY    82  74  76 SW13      30.05R

$$

GAZ063-065-086>088-099>101-113>116-118-119-134-136>141-150-030600-
...GEORGIA...

CITY           SKY/WX    TMP DP  RH WIND       PRES   REMARKS
SAVANNAH ARPT  CLOUDY    75  73  93 CALM      30.06S
HUNTER AAF     MOCLDY    75  75 100 W2        30.04S
FORT STEWART   MOCLDY    73  71  95 SE2       30.04F
STATESBORO     NOT AVBL
SYLVANIA       CLOUDY    71  70  98 CALM      30.05F FOG
CLAXTON        FAIR     N/A N/A N/A CALM      30.04F
THOMSON        CLOUDY    75  75  99 CALM      30.09R
AUGUSTA-BUSH   CLOUDY    71  71 100 S5        30.05S
AUGUSTA-DANIEL CLOUDY    74  72  93 SE8       30.06F
SWAINSBORO     FAIR      73  73 100 CALM      30.05F
VIDALIA        CLOUDY    73  72  94 CALM      30.05F
ALMA           CLOUDY    74  72  93 CALM      30.05S
WAYCROSS       CLOUDY    77  76  96 CALM      30.06S
JESUP            N/A     73  72  94 CALM      30.05F
BRUNSWICK      MOCLDY    73  72  94 CALM      30.06S
SAINT SIMONS   PTCLDY    76  75  97 CALM      30.05S

$$

SCZ027-028-034-036>038-045-046-048>050-GAZ119-141-030600-
...LAKE AND SUPPLEMENTAL COASTAL OBSERVATIONS...

STATION/POSITION TIME  TEMP    WIND        PRES    WAVE   SWELL
                       AIR SEA DIR/SP/G            HT/PER HT/PER/DIR
                 (UTC) (F)     (DEG/KT/KT) (MB)    (FT/S) (FT/S/D)
UPR LAKE MARION  NOT AVBL
WINYAH BAY       0500   81     230/  5     1017.0S
LAKE MURRAY      0400   78     220/  8/ 11 1016.3F
ACE BASIN NERRS  0500   76        CALM     1017.0S
FORT PULASKI     0500   79     280/  5/  6 1017.7F
SAPELO ISLAND    0500   77     300/  4     1018.0S

$$

ANZ835-935-AMZ111-154-330-350-352-354-374-450-454-472-030600-
...C-MAN AND BUOY OBSERVATIONS...

STATION/POSITION TIME  TEMP    WIND        PRES    WAVE   SWELL
                       AIR SEA DIR/SP/G            HT/PER HT/PER/DIR
                 (UTC) (F)     (DEG/KT/KT) (MB)    (FT/S) (FT/S/D)
FOLLY BEACH CMAN 0500   83     210/ 13/ 15 1018.2R
BUOY 41004       0500   83 84  210/ 10/ 14 1017.2R   3/ 8   2/ 8
BUOY 41008       0500   83 85  200/ 10/ 12 1017.3F   2/ 9   2/ 80/ 9
5E ST. MARYS GA  0500      84                N/A     2/ 8
FRYING PAN BUOY  NOT AVBL
BUOY 41025       0500   81     230/ 17/ 21 1016.5F   4/ 4   2/140/10
CAPE LOOKOUT NC  0500   81     230/  9/ 11 1016.9F
BUOY 41002       0437   81 83  200/ 12/ 14 1019.3F   3/ 9   2/100/ 9
BUOY 41010       0500   82 84  180/  4/  6 1018.1R   4/ 9   3/ 70/ 9
BUOY 41012       NOT AVBL
ST AUGUSTINE FL  0500   79     220/  4/  5 1017.9F
CAPERS NEARSHORE 0400   83     210/ 14/ 17   N/A
FRIPP NEARSHORE  NOT AVBL


$$


USA.gov is the U.S. government's official web portal to all federal, state and local government web resources and services.